User: anonymous   Login
Location: Home
(42.5358°N, 72.7383°W)
Time: 10:07:25
(UTC-04:00)
Language:

FENGYUN 1C DEB - Orbit

View from above orbital plane
View from above orbital plane
View from above satellite
View from above satellite

Ground track
Ground track

The orbit data is extracted from the following two-line orbital elements,

1 36234U 99025DVK 22256.21213786  .00000203  00000-0  30088-3 0  9997
2 36234  98.9337  72.8182 0319412 140.7990 221.6753 13.44442742719960
Epoch (UTC): 13 September 2022 05:05:28
Eccentricity: 0.0319412
inclination: 98.9337°
perigee height: 854 km
apogee height: 1331 km
right ascension of ascending node: 72.8182°
argument of perigee: 140.7990°
revolutions per day: 13.44442742
mean anomaly at epoch: 221.6753°
orbit number at epoch: 71996

The dashed part of the orbit path shows where the satellite is in the earth's shadow,  

DLR